sat.trackr.live / text

‹ back to catalog

STARLINK-31650

NORAD 59512 · 2024-073B

PAYLOAD ACTIVE UNKNOWN

§ Identity

Operator
Country
US
Launch date
2024-04-17
Launch site
AFETR
Launch vehicle
Mass (kg)
RCS (m²)

Purposes: comms

External: N2YO · Heavens-Above · Gunter

§ Orbital elements

Epoch: 2026-05-24T23:45:41.550336Z

Period
94.27 min
Inclination
43.0016°
Eccentricity
0.0000512
Mean motion
15.27570547 rev/d
Perigee alt
482.7 km
Apogee alt
483.4 km
Semi-major
6,861.2 km
B*
1.3470e-6
RAAN
247.2125°
Arg perigee
316.5921°
Mean anomaly
43.4890°
Rev number
11,784

§ Raw data

STARLINK-316501 59512U 24073B   26144.99006424 -.00000225  00000+0  13470-5 0  99982 59512  43.0016 247.2125 0000512 316.5921  43.4890 15.27570547117848

JSON: /api/v1/satellites/59512 · /tle

For live sub-satellite position, see the globe view (requires WebGL).

§ Visibility from observer

Set your observer location to see the next 7 days of passes ≥ 10°. The values pass through the URL so the page stays shareable.

No JS? Fill the form by hand. The geolocation button needs JavaScript.